Volver al catálogo

STARLINK-6143

ActivoComunicacionesVLEO
NORAD 57133·PAYLOAD·🇺🇸 United States

Lanzado Jun 23, 2023 desde Cape Canaveral Space Force Station

Loading…

Próximos Pases (próximas 24 horas)

TLE

ActualizadoSource: CelesTrak SupGP

Época: Sep 15, 2026, 03:16 UTC

1 57133C 23090AJ  26258.13659722 -.00016766  00000+0 -60732-3 0  2587
2 57133  43.0020 273.3773 0001906 271.2606 234.0200 15.27582699    18

Sigue STARLINK-6143 en tiempo real con AllMySat

Download on the App Store